Regional Weather Roundup
Issued by NWS Bismarck, ND

Home | Current Version | Previous Version | Text Only | Print | Product List | Glossary On
Versions: 1 2 3 4 5 6 7 8 9 10 11 12 13 14 15 16 17 18 19 20 21 22 23 24 25 26 27 28 29 30 31 32 33 34 35 36 37 38 39 40 41 42 43 44 45 46 47 48 49 50
000
ASUS43 KBIS 290010
RWRBIS

NWR BROADCAST TEXT
NATIONAL WEATHER SERVICE BISMARCK ND
700 PM CDT SAT MAR 28 2015

NOTE: "FAIR" INDICATES FEW OR NO CLOUDS BELOW 12,000 FEET WITH NO
SIGNIFICANT WEATHER AND/OR OBSTRUCTIONS TO VISIBILITY.


CITY           SKY/WX    TMP DP  RH WIND       PRES   REMARKS
WILLISTON      CLOUDY    61  45  55 W33G46    29.51R
MINOT          PTSUNNY   64  40  41 S22G37    29.38F
MINOT AFB      PTSUNNY   65  45  48 S16G28    29.35F
BISMARCK       CLOUDY    63  36  36 S18G29    29.51F
DICKINSON      LGT RAIN  57  47  69 NW32G43   29.54R
GARRISON         N/A     64  39  39 S18G25    29.41F
HETTINGER ARPT PTSUNNY   73  31  21 S14       29.49F
JAMESTOWN      PTCLDY    50  34  54 S24G31    29.63F
BEACH          LGT RAIN  54  48  82 NW36G51   29.66R
CARRINGTON     FAIR      50  37  62 S24G33    29.57F
CROSBY         FAIR      57  50  77 NW17G25   29.49R
HARVEY         FAIR      55  37  50 SE14G21   29.50F
HAZEN          FAIR      66  37  34 S23G38    29.43F
LINTON         FAIR      63  37  39 S26       29.56F
MANDAN         FAIR      63  36  36 SE18      29.50F
OAKES            N/A     54  34  47 S22G30    29.71F
RUGBY          FAIR      54  39  58 S18G26    29.46F
WATFORD CITY   MOCLDY    63  45  51 W25G38    29.51R
$$

CITY           SKY/WX    TMP DP  RH WIND       PRES   REMARKS
GRAND FORKS    MOCLDY    49  32  52 S24G37    29.68F
GRAND FORKS AF NOT AVBL
DEVILS LAKE    CLOUDY    48  37  66 S22G29    29.55F
FARGO          MOCLDY    52  29  41 S24G40    29.76F
CAVALIER       FAIR      45  36  70 S21G29    29.60F
GWINNER        CLEAR     54  32  43 S23         N/A
ROLLA          FAIR      46  41  81 S20       29.50F
WALHALLA         N/A     48  37  66 S17G32    29.57F
$$

CITY           SKY/WX    TMP DP  RH WIND       PRES   REMARKS
ABERDEEN       CLEAR     56  31  38 S23G32    29.73F
MOBRIDGE       MOSUNNY   64  36  35 S21G29    29.57F
BUFFALO          N/A     70  37  29 NW49G72   29.53R
RAPID CITY     PTSUNNY   82  21  10 W24G31    29.55F
GLASGOW        CLOUDY    54  33  45 W25G33    29.66R
SIDNEY         CLOUDY    55  43  62 W35G52    29.59R
WOLF POINT     LGT RAIN  53  44  71 W14G24    29.64S
GLENDIVE         N/A     52  39  62 W32G51    29.67R
MILES CITY     PTSUNNY   59  36  42 NW26G36   29.73R
BAKER          LGT RAIN  54  47  77 NW30G51   29.69R
$$

CITY           SKY/WX    TMP DP  RH WIND       PRES   REMARKS
BILLINGS       MOSUNNY   60  16  18 W32G43    29.87R
GREAT FALLS    CLOUDY    48  25  40 W28G48    29.94R
REGINA         LGT RAIN  48  48 100 NW17G23   29.53R
ESTEVAN        PTSUNNY   57  46  67 NW17      29.47R
$$




USA.gov is the U.S. government's official web portal to all federal, state and local government web resources and services.